Regional Weather Roundup
Issued by NWS

Home | Current Version | Previous Version | Text Only | Print | Product List | Glossary On
Versions: 1 2 3 4 5 6 7 8 9 10 11 12 13 14 15 16 17 18 19 20 21 22 23 24 25 26 27 28 29 30 31 32 33 34 35 36 37 38 39 40 41 42 43 44 45 46 47 48 49 50
000
ASUS43 KBIS 180410
RWRND

NORTH DAKOTA REGIONAL WEATHER ROUNDUP
NATIONAL WEATHER SERVICE BISMARCK ND
1100 PM CDT TUE OCT 17 2017

NOTE: "FAIR" INDICATES FEW OR NO CLOUDS BELOW 12,000 FEET WITH NO
SIGNIFICANT WEATHER AND/OR OBSTRUCTIONS TO VISIBILITY.


NDZ001>003-009>011-017-180500-
NORTHWEST NORTH DAKOTA

CITY           SKY/WX    TMP DP  RH WIND       PRES   REMARKS
WILLISTON      MOCLDY    58  27  30 S6        29.49F
MINOT          CLOUDY    65  27  23 SW13G20   29.50F
MINOT AFB      MOCLDY    65  26  23 SW18G26   29.47F
$$

NDZ018>021-031>035-040>046-180500-
SOUTHWEST NORTH DAKOTA

CITY           SKY/WX    TMP DP  RH WIND       PRES   REMARKS
BISMARCK       CLOUDY    61  23  23 S5        29.65F
DICKINSON      CLOUDY    58  25  28 S14       29.62F
GARRISON         N/A     62  29  28 SW15      29.57F
HETTINGER ARPT PTCLDY    55  24  30 SW14      29.73S
$$

NDZ004>008-012>016-024-026-027-054-180500-
NORTHEAST NORTH DAKOTA

CITY           SKY/WX    TMP DP  RH WIND       PRES   REMARKS
GRAND FORKS    CLEAR     55  38  52 S14       29.60F
GRND FRKS AFB  CLEAR     59  34  38 SW12      29.59F
DEVILS LAKE    CLOUDY    57  36  45 SW16      29.57F
$$

NDZ022-023-025-028>030-036>039-047>053-180500-
SOUTHEAST NORTH DAKOTA

CITY           SKY/WX    TMP DP  RH WIND       PRES   REMARKS
FARGO          CLEAR     59  42  53 S14       29.68F
JAMESTOWN      CLEAR     53  35  50 S9        29.66F
$$





USA.gov is the U.S. government's official web portal to all federal, state and local government web resources and services.